Regional Weather Roundup
Issued by NWS Northern Indiana

Home | Current Version | Previous Version | Text Only | Print | Product List | Glossary Off
Versions: 1 2 3 4 5 6 7 8 9 10 11 12 13 14 15 16 17 18 19 20 21 22 23 24 25 26 27 28 29 30 31 32 33 34 35 36 37 38 39 40 41 42 43 44 45 46 47 48 49 50

000
ASUS43 KIWX 240610
RWRIWX

KIWX WEATHER ROUNDUP
NATIONAL WEATHER SERVICE NORTHERN INDIANA
200 AM EDT FRI OCT 24 2014

NOTE: "FAIR" INDICATES FEW OR NO CLOUDS BELOW 12,000 FEET WITH NO
SIGNIFICANT WEATHER AND/OR OBSTRUCTIONS TO VISIBILITY.

* THESE STATIONS ARE NOT UNDER NWS QUALITY CONTROL. THEY ALSO MAY NOT
  REPORT WEATHER SUCH AS PRECIPITATION OR FOG.

INZ001>027-240700-
NORTHERN INDIANA

CITY           SKY/WX    TMP DP  RH WIND       PRES   REMARKS
GARY*          CLOUDY    55  42  62 S3        30.07F
VALPARAISO     CLOUDY    51  42  71 SW6       30.08F
6HR MIN TEMP:  49; 6HR MAX TEMP:  52;

MICHIGAN CITY* CLOUDY    52  39  62 S10       30.08S
LAPORTE*       CLOUDY    51  43  75 CALM      30.09S
6HR MIN TEMP:  45; 6HR MAX TEMP:  53;

KNOX*          CLOUDY    49  41  76 CALM      30.08F
6HR MIN TEMP:  29; 6HR MAX TEMP:  81;

SOUTH BEND     CLOUDY    50  42  74 SW3       30.10S
6HR MIN TEMP:  43; 6HR MAX TEMP:  53;

GOSHEN         CLOUDY    42  39  89 CALM      30.09S FOG
6HR MIN TEMP:  39; 6HR MAX TEMP:  51;

MONTICELLO*    CLOUDY    46  45  94 CALM      30.09F
6HR MIN TEMP:  42; 6HR MAX TEMP:  50;

LOGANSPORT*    MOCLDY    41  37  87 S3        30.11S
ROCHESTER*     MOCLDY    46  43  87 CALM      30.10S
WARSAW*        PTCLDY    37  37 100 CALM      30.10R
ANGOLA*        CLEAR     37  37 100 CALM      30.09S
FORT WAYNE     MOCLDY    39  36  89 S3        30.11F
6HR MIN TEMP:  38; 6HR MAX TEMP:  50;

HUNTINGTON*    PTCLDY    40  39  99 CALM      30.10S
6HR MIN TEMP:  38; 6HR MAX TEMP:  51;

MARION*        MOCLDY    40  37  90 S3        30.11F
6HR MIN TEMP:  29; 6HR MAX TEMP:  90;


$$
INZ028>050-240700-
CENTRAL INDIANA

CITY           SKY/WX    TMP DP  RH WIND       PRES   REMARKS
LAFAYETTE      CLOUDY    43  41  93 CALM      30.10F
6HR MIN TEMP:  41; 6HR MAX TEMP:  50;

KOKOMO*        PTCLDY    39  36  87 S3        30.11F
6HR MIN TEMP:  39; 6HR MAX TEMP:  48;

MUNCIE*        MOCLDY    41  39  93 CALM      30.11S
6HR MIN TEMP:  41; 6HR MAX TEMP:  51;

INDIANAPOLIS   MOCLDY    45  39  79 NW3       30.11R
6HR MIN TEMP:  45; 6HR MAX TEMP:  53;


$$
MIZ043>046-050>051-056>058-064>065-071>073-077>080-240700-
SOUTHWEST LOWER MICHIGAN

CITY           SKY/WX    TMP DP  RH WIND       PRES   REMARKS
BATTLE CREEK   CLOUDY    43  38  82 CALM      30.08F
6HR MIN TEMP:  40; 6HR MAX TEMP:  50;

BENTON HARBOR  CLOUDY    50  42  74 S3        30.08S
6HR MIN TEMP:  44; 6HR MAX TEMP:  51;

COLDWATER*     PTCLDY    37  36  96 CALM      30.08F FOG
6HR MIN TEMP:  36; 6HR MAX TEMP:  45;

HILLSDALE*     CLEAR     36  35  99 CALM      30.08F
HOLLAND        CLOUDY    51  43  74 S5        30.07F
6HR MIN TEMP:  48; 6HR MAX TEMP:  51;

GRAND RAPIDS   CLOUDY    47  41  80 S3        30.07F
6HR MIN TEMP:  44; 6HR MAX TEMP:  50;

KALAMAZOO      CLOUDY    47  41  80 S5        30.08S
6HR MIN TEMP:  43; 6HR MAX TEMP:  50;

STURGIS*       CLOUDY    39  39 100 CALM      30.08S FOG
THREE RIVERS*  CLOUDY    43  42  95 CALM      30.09S FOG
6HR MIN TEMP:  40; 6HR MAX TEMP:  49;


$$
OHZ001>008-015>018-024>025-240700-
NORTHWEST OHIO

CITY           SKY/WX    TMP DP  RH WIND       PRES   REMARKS
WAUSEON*       FAIR      37  36  93 W5        30.10S
DEFIANCE       PTCLDY    37  35  92 CALM      30.10F FOG
6HR MIN TEMP:  37; 6HR MAX TEMP:  47;

FINDLAY        MOCLDY    39  36  89 CALM      30.10S
6HR MIN TEMP:  36; 6HR MAX TEMP:  47;

TOLEDO EXPRESS MOCLDY    37  36  96 CALM      30.10S
6HR MIN TEMP:  35; 6HR MAX TEMP:  45;

TOLEDO METCALF PTCLDY    39  35  86 CALM      30.11S
6HR MIN TEMP:  38; 6HR MAX TEMP:  47;

LIMA           MOCLDY    42  38  85 SW5       30.11S
6HR MIN TEMP:  39; 6HR MAX TEMP:  49;


$$
AND FOR LAKE MICHIGAN COASTAL AND OPEN LAKE BUOY OBSERVATIONS

STATION/POSITION TEMP    WIND        PRES    VSBY  WAVE
                 AIR SEA DIR/SP/G                  HT/PER
                 (F)     (DEG/KT/KT) (MB)    (MI)  (FT/S)
CALUMET HARBOR    55     190/  4/  6 1016.7F
MICHIGAN CITY     53     170/  8/ 10   N/A
SAINT JOSEPH      52                 1019.3R
SOUTH LAKE BUOY   55 54  190/ 12/ 14 1017.4F         1/ 3

$$
&&



USA.gov is the U.S. government's official web portal to all federal, state and local government web resources and services.